Location: Risskov
(56.1972°N, 10.2480°E)
Time: 00:28:03
(UTC+00:00)

SL-16 R/B - Pass Details

Date: 05 July 2020
Orbit: 985 x 1006 km, 99.5° (Epoch: 03 August)

Event Time Altitude Azimuth Distance (km) Brightness Sun altitude
Rises 23:31:46 0° 133° (SE) 3,713 5.1 -11.1°
Reaches altitude 10° 23:34:20 10° 127° (SE) 2,770 4.6 -11.1°
Maximum altitude 23:40:09 44° 58° (ENE) 1,369 3.6 -11.1°
Drops below altitude 10° 23:46:02 10° 349° (N) 2,795 6.3 -11.0°
Sets 23:48:38 0° 343° (NNW) 3,750 7.0 -11.0°
